Location: *
(40.7765°S, 106.5327°E)
Time: 12:56:21
(UTC+00:00)

Cosmos 1802 Rocket - Visible Passes

Search period start: 26 September 2022 00:00
Search period end: 06 October 2022 00:00
Orbit: 954 x 1011 km, 82.9° (Epoch: 25 September)

Date Brightness Start Highest point End Pass type
(mag) Time Alt. Az. Time Alt. Az. Time Alt. Az.
26 Sep 6.0 19:49:31 10° SSE 19:54:56 28° ESE 20:00:19 10° NE visible
26 Sep 4.3 21:34:33 10° SSW 21:40:40 47° W 21:46:46 10° NNW visible
27 Sep 4.9 20:16:32 10° S 20:22:48 50° ESE 20:29:02 10° NNE visible
27 Sep 5.0 22:02:50 10° SSW 22:07:55 25° W 22:13:01 10° NW visible
28 Sep 7.4 11:38:28 10° WSW 11:39:45 11° WSW 11:41:03 10° SW visible
28 Sep 6.7 19:00:41 10° SSE 19:04:01 14° ESE 19:07:21 10° E visible
28 Sep 4.0 20:43:57 10° S 20:50:27 89° W 20:56:55 10° N visible
29 Sep 6.0 19:26:47 10° SSE 19:32:09 27° ESE 19:37:28 10° NE visible
29 Sep 4.3 21:11:45 10° SSW 21:17:54 49° W 21:24:04 10° NNW visible
30 Sep 4.9 19:53:46 10° S 20:00:02 48° ESE 20:06:14 10° NNE visible
30 Sep 5.0 21:40:00 10° SSW 21:45:11 26° W 21:50:22 10° NW visible
01 Oct 6.7 18:38:03 10° SE 18:41:12 14° ESE 18:44:22 10° E visible
01 Oct 4.0 20:21:11 10° S 20:27:41 88° E 20:34:09 10° N visible
02 Oct 6.0 19:04:03 10° SSE 19:09:20 26° ESE 19:14:35 10° NE visible
02 Oct 4.2 20:48:56 10° SSW 20:55:09 51° W 21:01:21 10° NNW visible
03 Oct 5.0 19:31:01 10° S 19:37:14 47° ESE 19:43:25 10° NNE visible
03 Oct 4.9 21:17:09 10° SSW 21:22:26 27° W 21:27:43 10° NW visible
04 Oct 6.7 18:15:26 10° SE 18:18:23 13° ESE 18:21:20 10° E visible
04 Oct 4.0 19:58:23 10° S 20:04:55 85° E 20:10:43 13° N visible
04 Oct 5.6 21:46:20 10° SW 21:49:30 14° W 21:52:41 10° WNW visible
05 Oct 6.0 18:41:20 10° SSE 18:46:32 25° ESE 18:51:42 10° NE visible
05 Oct 4.2 20:26:08 10° SSW 20:32:24 53° W 20:36:33 21° NNW visible
